EW6940 Weather Reports


time (UTC)temp
C
wind
direction
speed
KPH
gust
KPH
rain 1hr
cm
rain 24hr
cm
rain mn
cm
humidity
%
barometer
mb
20260504194623 22 82 0.0 0.0 0.00 0.05 0.05 46 1008.2
20260504194124 23 82 0.0 0.0 0.00 0.05 0.05 45 1008.1
20260504193623 23 82 0.0 0.0 0.00 0.05 0.05 48 1008.1
20260504193124 24 82 0.0 0.0 0.00 0.05 0.05 47 1008.2
20260504192625 25 82 0.0 0.0 0.00 0.05 0.05 49 1008.1
20260504192349 25 82 0.0 0.0 0.00 0.05 0.05 43 1008.2
20260504191851 26 82 0.0 0.0 0.00 0.05 0.05 41 1008.2
20260504191120 27 83 0.0 0.0 0.00 0.05 0.05 43 1008.1
20260504190849 27 82 0.0 0.0 0.00 0.05 0.05 43 1008.1
20260504190119 27 82 0.0 0.0 0.00 0.05 0.05 48 1008.2
20260504185620 27 82 0.0 0.0 0.00 0.05 0.05 48 1008.2
20260504185120 27 84 0.0 0.0 0.00 0.05 0.05 52 1008.2
20260504184620 27 84 0.0 0.0 0.00 0.05 0.05 53 1008.4
20260504184119 27 84 0.0 0.0 0.00 0.05 0.05 38 1008.2
20260504183620 27 83 0.0 0.0 0.00 0.05 0.05 41 1008.2
20260504183119 27 83 0.0 0.0 0.00 0.05 0.05 48 1008.3
20260504182620 26 83 0.0 0.0 0.00 0.05 0.05 42 1008.4
20260504182119 26 84 0.0 0.0 0.00 0.05 0.05 42 1008.4
20260504181619 26 84 0.0 0.0 0.00 0.05 0.05 40 1008.5
20260504181118 26 84 0.0 0.0 0.00 0.05 0.05 39 1008.7
20260504180849 26 84 0.0 0.0 0.03 0.05 0.05 41 1008.7
20260504180119 26 84 0.0 0.0 0.03 0.05 0.05 37 1008.7
20260504175614 26 83 0.0 0.0 0.03 0.05 0.05 42 1008.8
20260504175115 26 84 0.0 0.0 0.05 0.05 0.05 49 1008.9
20260504174610 26 84 0.0 0.0 0.05 0.05 0.05 42 1009.1
20260504174108 26 84 0.0 0.0 0.05 0.05 0.05 47 1009.1
20260504173608 25 83 0.0 0.0 0.05 0.05 0.05 42 1009.1
20260504173106 26 84 0.0 0.0 0.05 0.05 0.05 43 1009.2
20260504172602 26 84 0.0 0.0 0.05 0.05 0.05 43 1009.2
20260504172330 25 83 0.0 1.6 0.05 0.05 0.05 43 1009.3
20260504172205 25 83 0.0 0.0 0.05 0.05 0.05 47 1009.2
20260504171058 25 82 0.0 1.6 0.05 0.05 0.05 45 1009.4
20260504170557 25 98 0.0 0.0 0.03 0.03 0.03 46 1009.4
20260504170326 24 105 0.0 0.0 0.03 0.03 0.03 42 1009.3
20260504151013 18 59 0.0 0.0 0.00 0.00 0.00 55 1010.5
20260504150512 18 60 0.0 0.0 0.00 0.00 0.00 56 1010.5
20260504140953 12 59 0.0 0.0 0.00 0.00 0.00 72 1010.9
20260504140453 12 59 0.0 0.0 0.00 0.00 0.00 71 1011.0
20260504130701 10 58 0.0 0.0 0.00 0.00 0.00 79 1011.7
20260504090105 -17 0.0 0.0 0.00 0.00 0.00 1011.1
20260504081529 3 86 0.0 0.0 0.00 0.00 0.00 85 1010.9
20260504081023 3 86 0.0 0.0 0.00 0.00 0.00 86 1011.0
20260504080524 3 86 0.0 0.0 0.00 0.00 0.00 86 1011.0
20260504050652 2 92 0.0 0.0 0.00 0.00 0.00 87 1011.0
20260504045918 2 92 0.0 0.0 0.00 0.00 0.00 87 1011.1
20260504045414 2 92 0.0 0.0 0.00 0.00 0.00 86 1011.2
20260504044912 2 92 0.0 0.0 0.00 0.00 0.00 86 1011.1
20260504044412 2 92 0.0 0.0 0.00 0.00 0.00 86 1011.2
20260504043912 2 92 0.0 0.0 0.00 0.00 0.00 86 1011.2
20260504043412 2 92 0.0 0.0 0.00 0.00 0.00 86 1011.2
20260504042906 2 92 0.0 0.0 0.00 0.00 0.00 86 1011.2
20260504042404 2 91 0.0 0.0 0.00 0.00 0.00 85 1011.2
20260504041904 2 92 0.0 0.0 0.00 0.00 0.00 85 1011.2
20260504041404 2 92 0.0 0.0 0.00 0.00 0.00 85 1011.2
20260504040905 2 92 0.0 0.0 0.00 0.00 0.00 85 1011.1
20260504040404 2 92 0.0 0.0 0.00 0.00 0.00 85 1011.0
20260504035901 3 92 0.0 0.0 0.00 0.00 0.00 84 1011.0
20260504035402 3 92 0.0 0.0 0.00 0.00 0.00 83 1010.9
20260504034903 3 106 0.0 0.0 0.00 0.00 0.00 82 1010.9
20260504034400 3 106 0.0 0.0 0.00 0.00 0.00 82 1010.9
20260504034129 3 106 0.0 0.0 0.00 0.00 0.00 82 1010.9
20260504033358 3 106 0.0 0.0 0.00 0.00 0.00 82 1010.8
20260504032854 3 106 0.0 0.0 0.00 0.00 0.00 82 1010.8
20260504032623 3 106 0.0 0.0 0.00 0.00 0.00 82 1010.7
20260504031849 3 106 0.0 0.0 0.00 0.00 0.00 82 1010.8
20260504031347 3 106 0.0 0.0 0.00 0.00 0.00 82 1010.8
20260504030847 3 106 0.0 0.0 0.00 0.00 0.00 82 1010.7
20260504030343 3 106 0.0 0.0 0.00 0.00 0.00 82 1010.7
20260504025845 3 106 0.0 0.0 0.00 0.00 0.00 81 1010.8
20260504025344 3 106 0.0 0.0 0.00 0.00 0.00 81 1010.8
20260504024840 4 106 0.0 0.0 0.00 0.00 0.00 79 1010.7
20260504024339 4 106 0.0 0.0 0.00 0.00 0.00 78 1010.7
20260504023839 4 106 0.0 0.0 0.00 0.00 0.00 78 1010.7
20260504023333 4 106 0.0 0.0 0.00 0.00 0.00 77 1010.7
20260504022833 4 106 0.0 0.0 0.00 0.00 0.00 78 1010.7
20260504022334 4 106 0.0 0.0 0.00 0.00 0.00 78 1010.6
20260504021834 5 106 0.0 0.0 0.00 0.00 0.00 78 1010.6
20260504021333 5 138 0.0 0.0 0.00 0.00 0.00 76 1010.6
20260504020833 5 217 0.0 0.0 0.00 0.00 0.00 74 1010.6
20260504020557 5 237 0.0 0.0 0.00 0.00 0.00 75 1010.5
20260504015826 5 237 0.0 0.0 0.00 0.00 0.00 74 1010.5
20260504015322 5 237 0.0 0.0 0.00 0.00 0.00 73 1010.5
20260504014820 5 237 0.0 0.0 0.00 0.00 0.00 73 1010.4
20260504014552 5 237 0.0 0.0 0.00 0.00 0.00 73 1010.4
20260504014047 6 237 0.0 0.0 0.00 0.00 0.00 71 1010.4
20260504013312 6 237 0.0 0.0 0.00 0.00 0.00 69 1010.4
20260504012811 6 237 0.0 0.0 0.00 0.00 0.00 67 1010.3
20260504012540 6 237 0.0 0.0 0.00 0.00 0.00 69 1010.3
20260504011808 6 237 0.0 0.0 0.00 0.00 0.00 69 1010.2
20260504011303 6 237 0.0 0.0 0.00 0.00 0.00 69 1010.1
20260504010800 6 237 0.0 0.0 0.00 0.00 0.00 66 1010.1
20260504010258 6 237 0.0 0.0 0.00 0.00 0.00 66 1010.0
20260504005756 6 237 0.0 0.0 0.00 0.00 0.00 65 1009.8
20260504005528 6 237 0.0 0.0 0.00 0.00 0.00 64 1009.8
20260504004754 6 237 0.0 0.0 0.00 0.00 0.00 62 1009.7
20260504004524 6 237 0.0 0.0 0.00 0.00 0.00 61 1009.6
20260504003752 7 237 0.0 0.0 0.00 0.00 0.00 59 1009.5
20260504003254 7 237 0.0 0.0 0.00 0.00 0.00 55 1009.5
20260504002751 7 237 0.0 0.0 0.00 0.00 0.00 55 1009.3
20260504002250 7 237 0.0 0.0 0.00 0.00 0.00 54 1009.3
20260504001746 8 237 0.0 0.0 0.00 0.00 0.00 53 1009.2
20260504001242 8 237 0.0 0.0 0.00 0.00 0.00 52 1009.1
20260504000742 8 237 0.0 0.0 0.00 0.00 0.00 50 1009.1
20260504000238 9 237 0.0 0.0 0.00 0.00 0.00 49 1009.1
20260503235738 9 237 0.0 0.0 0.00 0.00 0.00 47 1009.0
20260503235234 10 237 0.0 0.0 0.00 0.00 0.00 46 1008.9
20260503234735 10 237 0.0 0.0 0.00 0.00 0.00 45 1008.9
20260503234234 10 237 0.0 0.0 0.00 0.00 0.00 45 1008.9
20260503233735 10 237 0.0 0.0 0.00 0.00 0.00 44 1008.8
20260503233232 10 237 0.0 0.0 0.00 0.00 0.00 43 1008.8
20260503232732 10 237 0.0 0.0 0.00 0.00 0.00 43 1008.8
20260503232225 11 238 0.0 0.0 0.00 0.00 0.00 42 1008.8
20260503231725 11 143 0.0 0.0 0.00 0.00 0.00 41 1008.8
20260503231222 11 142 0.0 0.0 0.00 0.00 0.00 41 1008.7
20260503230722 11 221 0.0 0.0 0.00 0.00 0.00 39 1008.7
20260503230221 12 313 0.0 0.0 0.00 0.00 0.00 37 1008.7
20260503225722 12 314 0.0 0.0 0.00 0.00 0.00 36 1008.6
20260503225221 12 299 0.0 0.0 0.00 0.00 0.00 36 1008.5
20260503224716 12 307 0.0 0.0 0.00 0.00 0.00 38 1008.6
20260503224217 12 271 0.0 0.0 0.00 0.00 0.00 37 1008.5
20260503223716 12 310 0.0 0.0 0.00 0.00 0.00 36 1008.6
20260503223214 12 330 0.0 0.0 0.00 0.00 0.00 36 1008.5
20260503222944 12 259 0.0 4.8 0.00 0.00 0.00 37 1008.5
20260503222208 12 311 0.0 4.8 0.00 0.00 0.00 36 1008.4
20260503221710 12 283 0.0 0.0 0.00 0.00 0.00 36 1008.3
20260503221208 12 328 0.0 0.0 0.00 0.00 0.00 37 1008.3
20260503220707 12 293 0.0 0.0 0.00 0.00 0.00 39 1008.4
20260503220206 11 309 0.0 0.0 0.00 0.00 0.00 37 1008.4
20260503215707 11 335 0.0 6.4 0.00 0.00 0.00 37 1008.5
20260503215207 11 285 0.0 6.4 0.00 0.00 0.00 36 1008.4
20260503214659 11 34 0.0 1.6 0.00 0.00 0.00 39 1008.5
20260503214156 11 281 0.0 0.0 0.00 0.00 0.00 39 1008.5
20260503213656 11 306 0.0 0.0 0.00 0.00 0.00 38 1008.4
20260503213153 11 314 0.0 3.2 0.00 0.00 0.00 37 1008.5
20260503212653 11 311 0.0 3.2 0.00 0.00 0.00 37 1008.4
20260503212155 11 308 0.0 4.8 0.00 0.00 0.00 38 1008.5
20260503211654 11 271 0.0 4.8 0.00 0.00 0.00 39 1008.3
20260503211154 11 319 0.0 1.6 0.00 0.00 0.00 37 1008.3
20260503210654 11 334 0.0 1.6 0.00 0.00 0.00 37 1008.3
20260503210148 11 322 0.0 0.0 0.00 0.00 0.00 38 1008.3
20260503205643 12 282 0.0 0.0 0.00 0.00 0.00 38 1008.2
20260503205143 12 305 0.0 4.8 0.00 0.00 0.00 37 1008.2
20260503204644 12 333 0.0 4.8 0.00 0.00 0.00 38 1008.1
20260503204143 12 143 0.0 3.2 0.00 0.00 0.00 37 1008.2
20260503203643 12 309 0.0 3.2 0.00 0.00 0.00 36 1008.1
20260503203144 12 288 0.0 0.0 0.00 0.00 0.00 36 1008.2
20260503202910 12 161 0.0 12.9 0.00 0.00 0.00 38 1008.1
20260503202411 11 294 0.0 12.9 0.00 0.00 0.00 37 1008.1
20260503201641 11 326 0.0 3.2 0.00 0.00 0.00 37 1008.3
20260503201140 11 310 0.0 3.2 0.00 0.00 0.00 37 1008.2
20260503200639 11 153 0.0 14.5 0.00 0.00 0.00 38 1008.1
20260503200142 11 304 1.6 14.5 0.00 0.00 0.00 37 1008.2
20260503200137 12 309 0.0 8.0 0.00 0.00 0.00 36 1008.1
20260503195135 12 318 0.0 3.2 0.00 0.00 0.00 37 1008.0